When you browse on this site, cookies collect data to enhance your experience and personalize the content and advertising you see.
Visit our Privacy Policy to learn more. By continuing to use the site, you agree to this use of cookies and data.
  • Em Portugal
  • Lista de países
  • Para 7 dias
  • Temperatura da água
  • Mapas de satélite
  • Mapa do tempo
  • Widgets de tempo
  • user-avatar
    Iniciar Sessão

    Previsão horária em Mutare

    Hoje, 22 Março, Sexta-feira

    Tempo Temperatura Precipitação Vento Pressão Humidade
    00:00 +17°C° 0 mm 0 m/s 653 mmHg 98%
    01:00 +17°C° 0 mm 0 m/s 653 mmHg 98%
    02:00 +17°C° 0 mm 0 m/s 653 mmHg 98%
    03:00 +17°C° 0 mm 0 m/s 653 mmHg 98%
    04:00 +17°C° 0 mm 0 m/s 653 mmHg 97%
    05:00 +19°C° 0 mm 1 m/s 653 mmHg 97%
    06:00 +19°C° 0 mm 1 m/s 653 mmHg 94%
    07:00 +20°C° 0 mm 1 m/s 654 mmHg 92%
    08:00 +21°C° 0 mm 1 m/s 654 mmHg 87%
    09:00 +23°C° 0 mm 1 m/s 655 mmHg 78%
    10:00 +24°C° 0 mm 1 m/s 655 mmHg 69%
    11:00 +26°C° 0 mm 2 m/s 655 mmHg 61%
    12:00 +26°C° 0 mm 2 m/s 655 mmHg 59%
    13:00 +27°C° 0 mm 2 m/s 655 mmHg 57%
    14:00 +27°C° 0 mm 2 m/s 655 mmHg 57%
    15:00 +26°C° 0 mm 2 m/s 654 mmHg 63%
    16:00 +25°C° 0 mm 2 m/s 654 mmHg 69%
    17:00 +24°C° 0 mm 1 m/s 654 mmHg 75%
    18:00 +22°C° 0.1 mm 1 m/s 654 mmHg 82%
    19:00 +21°C° 0.1 mm 1 m/s 654 mmHg 89%
    20:00 +19°C° 0.1 mm 1 m/s 654 mmHg 96%
    21:00 +19°C° 0 mm 1 m/s 654 mmHg 97%
    22:00 +19°C° 0 mm 1 m/s 655 mmHg 97%
    23:00 +18°C° 0 mm 1 m/s 655 mmHg 98%

    Amanhã, 23 Março, Sábado

    Tempo Temperatura Precipitação Vento Pressão Humidade
    00:00 +18°C° 0 mm 1 m/s 655 mmHg 98%
    01:00 +18°C° 0 mm 1 m/s 654 mmHg 98%
    02:00 +18°C° 0 mm 1 m/s 654 mmHg 98%
    03:00 +16°C° 0 mm 1 m/s 654 mmHg 98%
    04:00 +15°C° 0 mm 0 m/s 654 mmHg 98%
    05:00 +15°C° 0 mm 0 m/s 654 mmHg 98%
    06:00 +16°C° 0 mm 0 m/s 654 mmHg 95%
    07:00 +19°C° 0 mm 1 m/s 655 mmHg 92%
    08:00 +20°C° 0 mm 1 m/s 656 mmHg 89%
    09:00 +21°C° 0.1 mm 1 m/s 656 mmHg 82%
    10:00 +22°C° 0.1 mm 1 m/s 656 mmHg 75%
    11:00 +24°C° 0.1 mm 2 m/s 657 mmHg 68%
    12:00 +24°C° 0.1 mm 2 m/s 656 mmHg 66%
    13:00 +25°C° 0.1 mm 2 m/s 656 mmHg 64%
    14:00 +26°C° 0.1 mm 2 m/s 655 mmHg 62%
    15:00 +25°C° 0.4 mm 2 m/s 655 mmHg 68%
    16:00 +24°C° 0.4 mm 2 m/s 654 mmHg 74%
    17:00 +23°C° 0.4 mm 2 m/s 654 mmHg 80%
    18:00 +21°C° 0.1 mm 1 m/s 654 mmHg 86%
    19:00 +20°C° 0.1 mm 1 m/s 654 mmHg 91%
    20:00 +18°C° 0.1 mm 1 m/s 654 mmHg 97%
    21:00 +18°C° 0 mm 1 m/s 654 mmHg 97%
    22:00 +18°C° 0 mm 1 m/s 654 mmHg 98%
    23:00 +18°C° 0 mm 1 m/s 655 mmHg 98%

    Depois de amanhã, 24 Março, Domingo

    Tempo Temperatura Precipitação Vento Pressão Humidade
    00:00 +16°C° 0 mm 1 m/s 654 mmHg 98%
    01:00 +16°C° 0 mm 1 m/s 654 mmHg 98%
    02:00 +16°C° 0 mm 1 m/s 654 mmHg 98%
    03:00 +16°C° 0 mm 1 m/s 654 mmHg 98%
    04:00 +16°C° 0 mm 1 m/s 653 mmHg 98%
    05:00 +15°C° 0 mm 0 m/s 653 mmHg 98%
    06:00 +18°C° 0 mm 1 m/s 654 mmHg 93%
    07:00 +19°C° 0 mm 1 m/s 655 mmHg 88%
    08:00 +20°C° 0 mm 1 m/s 655 mmHg 83%
    09:00 +21°C° 0 mm 1 m/s 655 mmHg 76%
    10:00 +23°C° 0 mm 1 m/s 656 mmHg 69%
    11:00 +25°C° 0 mm 2 m/s 656 mmHg 61%
    12:00 +25°C° 0 mm 2 m/s 655 mmHg 60%
    13:00 +26°C° 0 mm 2 m/s 655 mmHg 59%
    14:00 +26°C° 0 mm 2 m/s 654 mmHg 58%
    15:00 +25°C° 0.1 mm 2 m/s 654 mmHg 64%
    16:00 +25°C° 0.1 mm 1 m/s 653 mmHg 70%
    17:00 +24°C° 0.1 mm 1 m/s 653 mmHg 76%
    18:00 +22°C° 0.1 mm 1 m/s 653 mmHg 82%
    19:00 +21°C° 0.1 mm 1 m/s 653 mmHg 89%
    20:00 +19°C° 0.1 mm 1 m/s 653 mmHg 95%
    21:00 +19°C° 0 mm 1 m/s 653 mmHg 96%
    22:00 +18°C° 0 mm 1 m/s 653 mmHg 97%
    23:00 +18°C° 0 mm 1 m/s 653 mmHg 98%

    25 Março, Segunda-feira

    Tempo Temperatura Precipitação Vento Pressão Humidade
    00:00 +18°C° 0 mm 1 m/s 652 mmHg 98%
    01:00 +16°C° 0 mm 0 m/s 652 mmHg 98%
    02:00 +15°C° 0 mm 0 m/s 652 mmHg 98%
    03:00 +15°C° 0 mm 0 m/s 651 mmHg 98%
    04:00 +15°C° 0 mm 0 m/s 651 mmHg 98%
    05:00 +14°C° 0 mm 0 m/s 651 mmHg 98%
    06:00 +16°C° 0 mm 0 m/s 652 mmHg 93%
    07:00 +17°C° 0 mm 0 m/s 653 mmHg 88%
    08:00 +19°C° 0 mm 0 m/s 654 mmHg 84%
    09:00 +22°C° 0 mm 0 m/s 654 mmHg 74%
    10:00 +24°C° 0 mm 0 m/s 654 mmHg 64%
    11:00 +27°C° 0 mm 0 m/s 655 mmHg 54%
    12:00 +29°C° 0 mm 1 m/s 654 mmHg 52%
    13:00 +29°C° 0 mm 1 m/s 653 mmHg 49%
    14:00 +29°C° 0 mm 1 m/s 653 mmHg 47%
    15:00 +28°C° 0 mm 1 m/s 652 mmHg 53%
    16:00 +27°C° 0 mm 1 m/s 652 mmHg 59%
    17:00 +26°C° 0 mm 1 m/s 651 mmHg 65%
    18:00 +24°C° 0 mm 1 m/s 651 mmHg 72%
    19:00 +22°C° 0 mm 1 m/s 651 mmHg 80%
    20:00 +20°C° 0 mm 1 m/s 651 mmHg 88%
    21:00 +19°C° 0 mm 1 m/s 651 mmHg 90%
    22:00 +19°C° 0 mm 1 m/s 651 mmHg 92%
    23:00 +18°C° 0 mm 1 m/s 651 mmHg 95%

    26 Março, Terça-feira

    Tempo Temperatura Precipitação Vento Pressão Humidade
    00:00 +18°C° 0 mm 1 m/s 651 mmHg 95%
    01:00 +18°C° 0 mm 1 m/s 651 mmHg 95%
    02:00 +18°C° 0 mm 1 m/s 650 mmHg 95%
    03:00 +16°C° 0 mm 1 m/s 650 mmHg 94%
    04:00 +16°C° 0 mm 1 m/s 650 mmHg 93%
    05:00 +16°C° 0 mm 1 m/s 650 mmHg 92%
    06:00 +17°C° 0 mm 0 m/s 652 mmHg 84%
    07:00 +19°C° 0 mm 0 m/s 653 mmHg 76%
    08:00 +21°C° 0 mm 0 m/s 654 mmHg 69%
    09:00 +23°C° 0 mm 0 m/s 654 mmHg 61%
    10:00 +27°C° 0 mm 1 m/s 655 mmHg 54%
    11:00 +29°C° 0 mm 1 m/s 655 mmHg 47%
    12:00 +29°C° 0 mm 2 m/s 655 mmHg 47%
    13:00 +29°C° 0 mm 2 m/s 654 mmHg 48%
    14:00 +29°C° 0 mm 3 m/s 653 mmHg 48%
    15:00 +28°C° 0 mm 2 m/s 653 mmHg 56%
    16:00 +27°C° 0 mm 2 m/s 653 mmHg 63%
    17:00 +25°C° 0 mm 2 m/s 653 mmHg 71%
    18:00 +24°C° 0 mm 2 m/s 653 mmHg 79%
    19:00 +22°C° 0 mm 1 m/s 653 mmHg 87%
    20:00 +20°C° 0 mm 1 m/s 653 mmHg 96%
    21:00 +20°C° 0 mm 1 m/s 654 mmHg 96%
    22:00 +20°C° 0 mm 1 m/s 654 mmHg 97%
    23:00 +19°C° 0 mm 1 m/s 654 mmHg 98%

    27 Março, Quarta-feira

    Tempo Temperatura Precipitação Vento Pressão Humidade
    00:00 +19°C° 0.1 mm 1 m/s 654 mmHg 98%
    01:00 +19°C° 0.1 mm 1 m/s 654 mmHg 98%
    02:00 +19°C° 0.1 mm 1 m/s 654 mmHg 98%
    03:00 +19°C° 0 mm 1 m/s 654 mmHg 98%
    04:00 +16°C° 0 mm 0 m/s 654 mmHg 98%
    05:00 +16°C° 0 mm 0 m/s 654 mmHg 98%
    06:00 +17°C° 0 mm 0 m/s 655 mmHg 94%
    07:00 +20°C° 0 mm 1 m/s 656 mmHg 91%
    08:00 +22°C° 0 mm 1 m/s 656 mmHg 87%
    09:00 +23°C° 0.1 mm 1 m/s 657 mmHg 82%
    10:00 +24°C° 0.1 mm 1 m/s 657 mmHg 76%
    11:00 +25°C° 0.1 mm 1 m/s 657 mmHg 71%
    12:00 +26°C° 0.1 mm 1 m/s 657 mmHg 69%
    13:00 +26°C° 0.1 mm 1 m/s 656 mmHg 67%
    14:00 +27°C° 0.1 mm 2 m/s 656 mmHg 64%
    15:00 +26°C° 0.5 mm 2 m/s 656 mmHg 71%
    16:00 +25°C° 0.5 mm 2 m/s 656 mmHg 77%
    17:00 +24°C° 0.5 mm 1 m/s 655 mmHg 84%
    18:00 +22°C° 0.2 mm 1 m/s 656 mmHg 88%
    19:00 +21°C° 0.2 mm 1 m/s 656 mmHg 93%
    20:00 +20°C° 0.2 mm 1 m/s 656 mmHg 97%
    21:00 +20°C° 0 mm 1 m/s 656 mmHg 97%
    22:00 +19°C° 0 mm 1 m/s 656 mmHg 98%
    23:00 +19°C° 0 mm 1 m/s 656 mmHg 98%
    Mostrar mais